Location: Newark
(40.7360°N, 74.1730°W)
Time: 22:06:51
(UTC-04:00)

Amateur Radio Satellites - All Passes

Search period start: 28 July 2016 21:36
Search period end: 29 July 2016 21:36
Location: Newark, 40.7360°N, 74.1730°W

Satellite Date Start Highest point End Downlink Frequencies (MHz)
Time Altitude Azimuth
DELFI C3 28 Jul 21:37:20 21:41:12 52° 74° (ENE) 21:45:04 145.870
CUBEBUG 2 28 Jul 21:47:00 21:50:48 25° 266° (W) 21:54:42 437.445
Oscar 11 28 Jul 21:55:57 22:00:01 39° 262° (W) 22:04:07 145.826/435.025
YUBILEINY 28 Jul 21:56:29 22:04:59 54° 270° (W) 22:13:25 435.215
ANTELSAT 28 Jul 22:07:13 22:09:28 13° 90° (E) 22:11:42 437.575/2403.000
HUMSAT D 28 Jul 22:16:47 22:21:04 73° 76° (ENE) 22:25:23 437.325/437.525
HO-68 28 Jul 22:19:30 22:20:29 10° 274° (W) 22:21:28 435.675
PHONESAT 2.4 28 Jul 22:20:49 22:21:59 12° 213° (SSW) 22:23:08 2401.200-2431.200
Cosmos 2504 28 Jul 22:34:43 22:42:52 83° 265° (W) 22:50:22 435.465 / 435.565
AISAT 28 Jul 22:41:42 22:44:10 15° 63° (ENE) 22:46:38 437.250
AO-85 28 Jul 22:41:51 22:46:15 88° 59° (ENE) 22:50:17 145.980
AIST 2 28 Jul 22:42:12 22:44:09 13° 320° (NW) 22:46:06 435.215
M-CUBED/EXP-1 PRIME 28 Jul 22:45:46 22:48:47 22° 262° (W) 22:52:02 437.505
TIGRISAT 28 Jul 22:46:49 22:51:02 34° 97° (E) 22:55:08 435.000
FUNcube-1 28 Jul 22:54:38 22:56:20 12° 271° (W) 22:58:02 145.935
ZACube-1 28 Jul 22:57:26 22:58:20 10° 272° (W) 22:59:14 437.345
ISS 28 Jul 22:58:36 23:00:53 17° 343° (NNW) 23:03:09 145.825
PRISM 28 Jul 23:03:01 23:04:57 13° 296° (WNW) 23:06:52 437.425
UNISAT 6 28 Jul 23:03:34 23:08:07 55° 100° (E) 23:12:33 437.425
AUBIESAT-1 28 Jul 23:11:18 23:13:32 15° 264° (W) 23:15:53 437.475
DELFI C3 28 Jul 23:15:07 23:16:21 11° 269° (W) 23:17:35 145.870
SPROUT 28 Jul 23:15:28 23:17:49 15° 64° (ENE) 23:20:11 437.525
Cosmos 2491 28 Jul 23:20:40 23:28:15 32° 290° (WNW) 23:35:53 435.465 / 435.565
ESTCUBE 1 28 Jul 23:21:39 23:26:05 64° 75° (ENE) 23:30:32 437.505/2401.250
CUBEBUG 1 28 Jul 23:27:28 23:31:35 47° 72° (ENE) 23:35:45 437.445
VELOX 1 28 Jul 23:30:56 23:35:07 45° 72° (ENE) 23:39:19 145.980
ANTELSAT 28 Jul 23:42:01 23:46:34 58° 287° (WNW) 23:51:00 437.575/2403.000
NANOSAT C BR1 28 Jul 23:51:22 23:54:57 25° 95° (E) 23:58:28 145.865
DUCHIFAT 1 28 Jul 23:54:44 23:58:20 26° 95° (E) 00:01:52 145.980
BUGSAT 1 29 Jul 00:02:52 00:05:06 14° 91° (E) 00:07:19 437.445
50 SAT 29 Jul 00:05:00 00:08:39 63° 260° (W) 00:12:16 437.505
TISAT 1 29 Jul 00:05:06 00:06:42 12° 62° (ENE) 00:08:17 437.305
DX 1 29 Jul 00:09:02 00:13:22 89° 53° (NE) 00:17:43 434.975-435.025
QB50P1 29 Jul 00:14:26 00:18:36 49° 100° (E) 00:22:44 145.935-145.965
AISAT 29 Jul 00:15:54 00:20:10 53° 260° (W) 00:24:30 437.250
UKube-1 29 Jul 00:19:14 00:23:32 89° 244° (WSW) 00:27:52 .
POPSAT HIP 1 29 Jul 00:21:01 00:25:16 57° 101° (E) 00:29:28 437.405
TIGRISAT 29 Jul 00:23:51 00:27:31 24° 293° (WNW) 00:31:06 435.000
Cosmos 2504 29 Jul 00:31:08 00:34:42 14° 285° (WNW) 00:38:10 435.465 / 435.565
AIST 1 29 Jul 00:34:35 00:38:56 76° 81° (E) 00:43:19
ISS 29 Jul 00:36:51 00:38:19 12° 3° (N) 00:39:47 145.825
UNISAT 6 29 Jul 00:41:37 00:44:20 16° 297° (WNW) 00:47:01 437.425
QB50P2 29 Jul 00:42:26 00:46:43 75° 285° (WNW) 00:50:59 145.880/145.840
JAS-2 29 Jul 00:43:18 00:48:04 32° 97° (E) 00:53:13 435.910
POLYITAN 1 29 Jul 00:45:04 00:49:22 73° 285° (WNW) 00:53:38 437.675
SPROUT 29 Jul 00:49:09 00:53:18 51° 260° (W) 00:57:31 437.525
SWISSCUBE 29 Jul 00:57:59 00:59:29 11° 60° (ENE) 01:00:59 437.505
ESTCUBE 1 29 Jul 01:01:42 01:03:18 12° 270° (W) 01:04:54 437.505/2401.250
CUBEBUG 1 29 Jul 01:05:43 01:08:08 15° 268° (W) 01:10:33 437.445
VELOX 1 29 Jul 01:09:09 01:11:48 16° 268° (W) 01:14:29 145.980
BEESAT 29 Jul 01:17:31 01:20:27 16° 63° (ENE) 01:23:23 436.000
NANOSAT C BR1 29 Jul 01:26:59 01:30:36 27° 291° (WNW) 01:34:12 145.865
Cosmos 2499 29 Jul 01:29:45 01:34:49 18° 62° (ENE) 01:39:38 435.465 / 435.565
DUCHIFAT 1 29 Jul 01:30:21 01:33:57 27° 291° (WNW) 01:37:30 145.980
BUGSAT 1 29 Jul 01:36:36 01:40:44 49° 287° (WNW) 01:44:50 437.445
TISAT 1 29 Jul 01:37:38 01:41:47 63° 258° (WSW) 01:46:00 437.305
ITUPSAT 1 29 Jul 01:40:40 01:44:38 27° 67° (ENE) 01:48:37 437.325
QB50P1 29 Jul 01:51:28 01:53:57 15° 296° (WNW) 01:56:26 145.935-145.965
POPSAT HIP 1 29 Jul 01:58:29 02:00:33 13° 297° (WNW) 02:02:37 437.405
GONETS M04 29 Jul 02:04:17 02:12:45 48° 75° (ENE) 02:21:11
ISS 29 Jul 02:12:53 02:15:37 24° 23° (NNE) 02:18:22 145.825
Gurwin Techsat 1B 29 Jul 02:21:56 02:26:37 31° 96° (E) 02:31:17 435.225
Oscar 19 29 Jul 02:25:23 02:30:35 75° 103° (ESE) 02:35:45 437.125/150
JAS-2 29 Jul 02:28:26 02:33:09 33° 292° (WNW) 02:38:12 435.910
SWISSCUBE 29 Jul 02:31:46 02:36:34 84° 257° (WSW) 02:41:23 437.505
BEESAT 29 Jul 02:53:03 02:57:45 57° 259° (W) 03:02:29 436.000
BEESAT 3 29 Jul 02:54:57 02:58:50 50° 54° (NE) 03:02:41 437.485
AO-7 29 Jul 02:57:25 03:00:48 13° 88° (E) 03:04:10 29.400- 29.500
STARS 29 Jul 03:04:58 03:06:13 11° 61° (ENE) 03:07:28 437.465
BEESAT 2 29 Jul 03:05:06 03:08:48 35° 52° (NE) 03:12:29 435.950
MOZHAYETS 4 29 Jul 03:17:00 03:21:05 31° 69° (ENE) 03:25:10
ITUPSAT 1 29 Jul 03:18:01 03:22:19 33° 263° (W) 03:26:40 437.325
Cosmos 2499 29 Jul 03:21:14 03:29:04 83° 265° (W) 03:36:17 435.465 / 435.565
PCSat 29 Jul 03:28:51 03:33:34 29° 50° (NE) 03:38:15 145.827
CUSAT 1 29 Jul 03:47:22 03:51:24 79° 101° (E) 03:54:34 437.405
ISS 29 Jul 03:49:03 03:52:13 50° 222° (SW) 03:55:22 145.825
GONETS M04 29 Jul 04:01:29 04:09:19 38° 274° (W) 04:17:10
Gurwin Techsat 1B 29 Jul 04:01:48 04:06:32 33° 292° (WNW) 04:11:14 435.225
ITAMSAT 1 29 Jul 04:04:04 04:09:17 90° 218° (SW) 04:14:27 435.822/435.867
KKS-1 29 Jul 04:04:22 04:08:48 85° 257° (WSW) 04:13:18 437.445
Oscar 19 29 Jul 04:06:33 04:09:15 14° 300° (WNW) 04:11:57 437.125/150
DANDE 29 Jul 04:27:26 04:32:58 78° 99° (E) 04:37:03 436.750
BEESAT 3 29 Jul 04:34:04 04:36:05 14° 251° (WSW) 04:38:05 437.485
STARS 29 Jul 04:37:33 04:41:56 75° 258° (WSW) 04:46:22 437.465
CUBESAT XI-V 29 Jul 04:41:55 04:45:54 30° 69° (ENE) 04:49:54 437.345
BEESAT 2 29 Jul 04:43:26 04:46:24 20° 248° (WSW) 04:49:22 435.950
AO-7 29 Jul 04:46:30 04:54:53 74° 106° (ESE) 05:03:11 29.400- 29.500
MOZHAYETS 4 29 Jul 04:54:25 04:58:14 25° 265° (W) 05:02:05
PCSat 29 Jul 05:11:59 05:17:05 42° 248° (WSW) 05:22:09 145.827
Cosmos 2499 29 Jul 05:17:36 05:20:40 13° 285° (WNW) 05:23:40 435.465 / 435.565
HORYU 2 29 Jul 05:20:01 05:23:55 29° 96° (E) 05:27:47 437.375
AIST 2 29 Jul 05:22:35 05:26:39 48° 54° (NE) 05:30:41 435.215
O/OREOS (USA 219) 29 Jul 05:26:05 05:29:39 22° 57° (ENE) 05:33:12 437.305
ITAMSAT 1 29 Jul 05:46:03 05:47:58 12° 302° (WNW) 05:49:53 435.822/435.867
CUTE-I 29 Jul 05:59:35 06:02:03 13° 90° (E) 06:04:29 437.470
NOAA 15 29 Jul 06:11:28 06:15:38 23° 94° (E) 06:19:47 137.62
CUBESAT XI-V 29 Jul 06:19:23 06:23:15 26° 265° (W) 06:27:08 437.345
RS-15 29 Jul 06:20:42 06:31:38 56° 111° (ESE) 06:43:11 29.354- 29.394
BRITE-PL 29 Jul 06:38:17 06:43:08 58° 101° (E) 06:48:22 437.365/2234.400
AO-7 29 Jul 06:40:19 06:46:54 27° 305° (NW) 06:53:28 29.400- 29.500
NOAA 18 29 Jul 06:51:30 06:56:43 40° 99° (E) 07:01:53 137.9125
HORYU 2 29 Jul 06:56:39 07:00:22 26° 293° (WNW) 07:04:02 437.375
STRAND 1 29 Jul 07:01:00 07:06:00 53° 72° (ENE) 07:11:00 437.568
AIST 2 29 Jul 07:02:11 07:04:44 16° 250° (WSW) 07:07:18 435.215
O/OREOS (USA 219) 29 Jul 07:04:58 07:09:10 37° 254° (WSW) 07:13:21 437.305
DOVE 4 29 Jul 07:12:16 07:16:47 29° 95° (E) 07:21:21 437.250
Cubesat XI-IV 29 Jul 07:14:18 07:19:39 68° 102° (ESE) 07:24:57 437.490
SO-50 29 Jul 07:20:18 07:24:43 35° 115° (ESE) 07:29:09 436.795
LilacSat-2 29 Jul 07:27:15 07:31:06 70° 284° (WNW) 07:34:54 437.200
GOMX 1 29 Jul 07:29:32 07:34:41 87° 103° (ESE) 07:40:06 467.674
Cosmos 2491 29 Jul 07:33:42 07:40:49 27° 67° (ENE) 07:47:54 435.465 / 435.565
CUTE-I 29 Jul 07:37:18 07:42:39 75° 286° (WNW) 07:47:57 437.470
NOAA 15 29 Jul 07:50:36 07:55:33 43° 290° (WNW) 08:00:30 137.62
CANX-2 29 Jul 07:50:47 07:53:10 15° 92° (E) 07:55:32 2200.000
HO-68 29 Jul 07:53:23 07:58:56 23° 93° (E) 08:04:26 435.675
CUTE 1.7 + AOD 2 29 Jul 08:03:21 08:06:14 18° 93° (E) 08:09:05 437.475
PRISM 29 Jul 08:15:12 08:18:56 36° 71° (ENE) 08:22:40 437.425
BRITE-PL 29 Jul 08:18:05 08:21:14 17° 294° (WNW) 08:24:32 437.365/2234.400
NOAA 18 29 Jul 08:32:32 08:37:10 28° 295° (WNW) 08:41:46 137.9125
RS-15 29 Jul 08:33:13 08:44:20 49° 316° (NW) 08:56:04 29.354- 29.394
SEEDS 29 Jul 08:37:48 08:41:29 30° 96° (E) 08:45:10 437.485
STRAND 1 29 Jul 08:42:01 08:45:28 18° 268° (W) 08:48:56 437.568
CINEMA 3 29 Jul 08:44:58 08:50:00 71° 101° (E) 08:54:57 145.822/145.860
COMPASS 1 29 Jul 08:45:33 08:49:01 25° 95° (E) 08:52:28 437.405
DOVE 4 29 Jul 08:49:45 08:54:26 35° 290° (WNW) 08:59:13 437.250
Cubesat XI-IV 29 Jul 08:55:52 08:59:08 17° 299° (WNW) 09:02:23 437.490
YUBILEINY 29 Jul 09:00:44 09:08:35 38° 86° (E) 09:16:29 435.215
SO-50 29 Jul 09:00:55 09:05:15 31° 312° (NW) 09:09:33 436.795
FUNcube-1 29 Jul 09:05:34 09:07:34 13° 90° (E) 09:09:34 145.935
ANTELSAT 29 Jul 09:06:12 09:08:21 13° 62° (ENE) 09:10:30 437.575/2403.000
ZACube-1 29 Jul 09:07:21 09:09:51 15° 90° (E) 09:12:19 437.345
GOMX 1 29 Jul 09:09:56 09:12:07 13° 298° (WNW) 09:14:20 467.674
UWE-3 29 Jul 09:10:53 09:14:42 25° 94° (E) 09:18:24 435.000/436.395/437.385
AAUSAT CUBESAT 2 29 Jul 09:11:18 09:15:12 40° 98° (E) 09:19:03 437.432
CUTE-I 29 Jul 09:21:10 09:21:45 10° 304° (WNW) 09:22:18 437.470
Cosmos 2504 29 Jul 09:21:58 09:27:06 17° 77° (ENE) 09:32:12 435.465 / 435.565
CANX-2 29 Jul 09:25:14 09:29:15 44° 287° (WNW) 09:33:14 2200.000
Cosmos 2491 29 Jul 09:29:41 09:38:20 67° 267° (W) 09:47:00 435.465 / 435.565
CUBEBUG 2 29 Jul 09:37:12 09:41:55 74° 101° (E) 09:46:29 437.445
CUTE 1.7 + AOD 2 29 Jul 09:38:19 09:42:12 36° 289° (WNW) 09:46:03 437.475
HO-68 29 Jul 09:40:00 09:47:07 65° 290° (WNW) 09:54:12 435.675
Oscar 11 29 Jul 09:43:15 09:47:15 36° 97° (E) 09:51:12 145.826/435.025
TIGRISAT 29 Jul 09:44:57 09:48:59 30° 69° (ENE) 09:53:04 435.000
PRISM 29 Jul 09:51:40 09:54:22 17° 266° (W) 09:57:04 437.425
UNISAT 6 29 Jul 10:01:37 10:06:03 47° 72° (ENE) 10:10:34 437.425
HUMSAT D 29 Jul 10:02:52 10:04:15 11° 90° (E) 10:05:37 437.325/437.525
SEEDS 29 Jul 10:13:50 10:17:01 22° 292° (WNW) 10:20:11 437.485
COMPASS 1 29 Jul 10:21:07 10:24:29 25° 291° (WNW) 10:27:51 437.405
CINEMA 3 29 Jul 10:23:47 10:26:30 15° 298° (WNW) 10:29:12 145.822/145.860
M-CUBED/EXP-1 PRIME 29 Jul 10:24:12 10:28:08 26° 100° (E) 10:32:01 437.505
ANTELSAT 29 Jul 10:39:48 10:44:26 70° 259° (W) 10:49:08 437.575/2403.000
FUNcube-1 29 Jul 10:39:49 10:44:12 56° 286° (WNW) 10:48:27 145.935
ZACube-1 29 Jul 10:42:06 10:46:27 50° 287° (WNW) 10:50:40 437.345
NANOSAT C BR1 29 Jul 10:43:43 10:46:43 19° 66° (ENE) 10:49:43 145.865
DUCHIFAT 1 29 Jul 10:46:49 10:49:50 19° 66° (ENE) 10:52:51 145.980
UWE-3 29 Jul 10:47:08 10:51:09 30° 291° (WNW) 10:55:03 435.000/436.395/437.385
AAUSAT CUBESAT 2 29 Jul 10:47:45 10:50:22 17° 294° (WNW) 10:52:58 437.432
AUBIESAT-1 29 Jul 10:48:00 10:52:19 37° 102° (ESE) 10:56:34 437.475
DELFI C3 29 Jul 10:49:42 10:53:39 87° 292° (WNW) 10:57:36 145.870
RS-15 29 Jul 10:51:54 11:00:55 23° 348° (NNW) 11:10:10 29.354- 29.394
YUBILEINY 29 Jul 10:56:48 11:05:09 47° 285° (WNW) 11:13:37 435.215
JAS-2 29 Jul 10:58:32 11:01:10 13° 61° (ENE) 11:03:42 435.910
QB50P1 29 Jul 11:06:31 11:10:22 35° 71° (ENE) 11:14:16 145.935-145.965
Cosmos 2504 29 Jul 11:10:17 11:19:10 85° 96° (E) 11:28:01 435.465 / 435.565
POPSAT HIP 1 29 Jul 11:13:03 11:17:02 40° 71° (ENE) 11:21:03 437.405
CUBEBUG 2 29 Jul 11:15:56 11:17:51 12° 299° (WNW) 11:19:45 437.445
ESTCUBE 1 29 Jul 11:16:02 11:18:16 14° 91° (E) 11:20:30 437.505/2401.250
Oscar 11 29 Jul 11:20:00 11:23:07 20° 293° (WNW) 11:26:14 145.826/435.025
TIGRISAT 29 Jul 11:21:39 11:25:37 27° 265° (W) 11:29:38 435.000
HO-68 29 Jul 11:30:36 11:33:28 13° 310° (NW) 11:36:21 435.675
Cosmos 2491 29 Jul 11:31:10 11:33:22 11° 287° (WNW) 11:35:34 435.465 / 435.565
QB50P2 29 Jul 11:34:18 11:38:33 78° 75° (ENE) 11:42:51 145.880/145.840
HUMSAT D 29 Jul 11:36:08 11:40:15 56° 286° (WNW) 11:44:16 437.325/437.525
POLYITAN 1 29 Jul 11:36:55 11:41:11 79° 76° (ENE) 11:45:29 437.675
UNISAT 6 29 Jul 11:39:54 11:43:00 17° 268° (W) 11:46:08 437.425
M-CUBED/EXP-1 PRIME 29 Jul 11:58:22 12:02:39 35° 295° (WNW) 12:06:53 437.505
DX 1 29 Jul 11:58:41 12:01:22 16° 93° (E) 12:04:00 434.975-435.025
Oscar 19 29 Jul 12:05:59 12:08:25 14° 60° (ENE) 12:10:52 437.125/150
AISAT 29 Jul 12:06:27 12:10:20 28° 96° (E) 12:14:11 437.250
UKube-1 29 Jul 12:07:52 12:10:27 15° 92° (E) 12:13:00 .
NANOSAT C BR1 29 Jul 12:18:15 12:22:10 37° 262° (W) 12:26:08 145.865
DUCHIFAT 1 29 Jul 12:21:20 12:25:15 36° 262° (W) 12:29:12 145.980
AUBIESAT-1 29 Jul 12:22:47 12:26:32 25° 298° (WNW) 12:30:16 437.475
BUGSAT 1 29 Jul 12:25:33 12:29:38 76° 258° (WSW) 12:33:48 437.445
SPROUT 29 Jul 12:35:36 12:39:16 26° 95° (E) 12:42:54 437.525
JAS-2 29 Jul 12:39:40 12:45:41 83° 256° (WSW) 12:51:08 435.910
QB50P1 29 Jul 12:43:09 12:46:14 19° 266° (W) 12:49:20 145.935-145.965
POPSAT HIP 1 29 Jul 12:50:13 12:52:59 17° 267° (W) 12:55:46 437.405
ESTCUBE 1 29 Jul 12:51:01 12:55:25 55° 287° (WNW) 12:59:47 437.505/2401.250
CUBEBUG 1 29 Jul 12:52:04 12:56:30 80° 282° (WNW) 13:00:54 437.445
AO-85 29 Jul 12:54:50 12:59:43 35° 114° (ESE) 13:04:25 145.980
VELOX 1 29 Jul 12:57:14 13:01:42 84° 285° (WNW) 13:06:10 145.980
AIST 1 29 Jul 13:03:32 13:07:34 44° 93° (E) 13:11:38
Cosmos 2504 29 Jul 13:07:09 13:13:35 22° 295° (WNW) 13:20:01 435.465 / 435.565
50 SAT 29 Jul 13:07:26 13:10:54 47° 286° (WNW) 13:14:20 437.505
RS-15 29 Jul 13:09:10 13:19:13 28° 24° (NNE) 13:29:18 29.354- 29.394
TISAT 1 29 Jul 13:22:30 13:25:39 20° 94° (E) 13:28:47 437.305
DX 1 29 Jul 13:33:35 13:37:46 46° 288° (WNW) 13:41:57 434.975-435.025
Oscar 19 29 Jul 13:41:57 13:47:04 78° 258° (WSW) 13:52:13 437.125/150
Gurwin Techsat 1B 29 Jul 13:42:34 13:47:38 48° 71° (ENE) 13:52:45 435.225
UKube-1 29 Jul 13:42:34 13:46:43 46° 288° (WNW) 13:50:51 .
AISAT 29 Jul 13:42:58 13:46:42 26° 292° (WNW) 13:50:25 437.250
ITAMSAT 1 29 Jul 13:44:36 13:47:59 18° 62° (ENE) 13:51:21 435.822/435.867
AO-7 29 Jul 13:55:25 14:01:25 23° 52° (NE) 14:07:25 29.400- 29.500
Cosmos 2499 29 Jul 14:07:09 14:12:02 16° 77° (ENE) 14:16:50 435.465 / 435.565
SPROUT 29 Jul 14:11:30 14:15:08 26° 291° (WNW) 14:18:44 437.525
CUSAT 1 29 Jul 14:18:56 14:21:54 36° 79° (E) 14:25:34 437.405
SWISSCUBE 29 Jul 14:32:48 14:36:42 25° 95° (E) 14:40:33 437.505
AO-85 29 Jul 14:35:18 14:40:12 35° 310° (NW) 14:44:54 145.980
AIST 1 29 Jul 14:43:00 14:45:25 15° 290° (WNW) 14:47:50
BEESAT 29 Jul 14:53:31 14:57:54 36° 98° (E) 15:02:16 436.000
TISAT 1 29 Jul 14:57:31 15:01:22 34° 290° (WNW) 15:05:12 437.305
GONETS M04 29 Jul 15:04:47 15:13:08 55° 90° (E) 15:21:33
DANDE 29 Jul 15:05:51 15:08:18 32° 78° (ENE) 15:11:04 436.750
ITUPSAT 1 29 Jul 15:18:06 15:22:51 64° 102° (ESE) 15:27:33 437.325
ITAMSAT 1 29 Jul 15:21:46 15:26:56 61° 258° (WSW) 15:32:07 435.822/435.867
RS-15 29 Jul 15:22:16 15:34:39 68° 53° (NE) 15:46:48 29.354- 29.394
Gurwin Techsat 1B 29 Jul 15:23:52 15:27:49 21° 267° (W) 15:31:48 435.225
AO-7 29 Jul 15:44:46 15:53:09 88° 252° (WSW) 16:01:35 29.400- 29.500
SO-50 29 Jul 15:52:00 15:56:08 30° 48° (NE) 16:00:07 436.795
Cosmos 2499 29 Jul 15:54:58 16:03:52 83° 95° (E) 16:12:30 435.465 / 435.565
KKS-1 29 Jul 15:56:28 15:59:39 19° 94° (E) 16:02:48 437.445
SWISSCUBE 29 Jul 16:10:14 16:14:30 34° 291° (WNW) 16:18:45 437.505
HORYU 2 29 Jul 16:17:46 16:21:33 27° 68° (ENE) 16:25:20 437.375
PHONESAT 2.4 29 Jul 16:24:38 16:27:29 34° 158° (SSE) 16:30:19 2401.200-2431.200
STARS 29 Jul 16:27:58 16:31:16 20° 94° (E) 16:34:31 437.465
BEESAT 29 Jul 16:31:42 16:35:29 24° 294° (WNW) 16:39:15 436.000
NOAA 18 29 Jul 16:41:46 16:43:12 11° 56° (NE) 16:44:38 137.9125
MOZHAYETS 4 29 Jul 16:48:37 16:53:12 77° 101° (E) 16:57:46
ITUPSAT 1 29 Jul 16:57:34 17:00:08 15° 298° (WNW) 17:02:41 437.325
Cubesat XI-IV 29 Jul 16:59:03 17:01:58 15° 60° (ENE) 17:04:53 437.490
GONETS M04 29 Jul 17:02:45 17:10:18 33° 290° (WNW) 17:17:58
CUTE-I 29 Jul 17:20:23 17:24:32 23° 64° (ENE) 17:28:40 437.470
NOAA 15 29 Jul 17:31:05 17:35:51 37° 68° (ENE) 17:40:38 137.62
KKS-1 29 Jul 17:32:09 17:36:21 40° 289° (WNW) 17:40:33 437.445
SO-50 29 Jul 17:32:29 17:36:34 32° 246° (WSW) 17:40:32 436.795
RS-15 29 Jul 17:35:38 17:46:23 38° 255° (WSW) 17:57:00 29.354- 29.394
AO-7 29 Jul 17:41:52 17:46:56 17° 270° (W) 17:52:03 29.400- 29.500
BRITE-PL 29 Jul 17:49:42 17:53:46 58° 74° (ENE) 17:57:54 437.365/2234.400
Cosmos 2499 29 Jul 17:51:26 17:57:55 22° 295° (WNW) 18:04:17 435.465 / 435.565
HORYU 2 29 Jul 17:54:09 17:58:00 28° 264° (W) 18:01:54 437.375
PHONESAT 2.4 29 Jul 18:00:45 18:03:49 84° 178° (S) 18:06:55 2401.200-2431.200
STARS 29 Jul 18:03:37 18:07:43 37° 290° (WNW) 18:11:47 437.465
LilacSat-2 29 Jul 18:08:32 18:12:18 52° 74° (ENE) 18:16:06 437.200
PCSat 29 Jul 18:10:47 18:15:10 26° 108° (ESE) 18:19:34 145.827
CUBESAT XI-V 29 Jul 18:15:05 18:19:42 77° 100° (E) 18:24:20 437.345
NOAA 18 29 Jul 18:17:22 18:22:53 75° 73° (ENE) 18:28:27 137.9125
DOVE 4 29 Jul 18:18:11 18:21:40 24° 67° (ENE) 18:25:18 437.250
BEESAT 3 29 Jul 18:22:17 18:26:12 79° 303° (WNW) 18:30:09 437.485
HO-68 29 Jul 18:23:13 18:27:53 19° 55° (NE) 18:32:32 435.675
MOZHAYETS 4 29 Jul 18:28:17 18:29:43 11° 299° (WNW) 18:31:07
BEESAT 2 29 Jul 18:33:49 18:37:43 72° 121° (ESE) 18:41:42 435.950
Cubesat XI-IV 29 Jul 18:35:59 18:41:22 77° 257° (WSW) 18:46:47 437.490
GOMX 1 29 Jul 18:37:57 18:42:07 87° 83° (E) 18:46:33 467.674
CANX-2 29 Jul 18:44:40 18:46:01 11° 63° (ENE) 18:47:23 2200.000
CUTE 1.7 + AOD 2 29 Jul 18:56:44 18:58:50 14° 64° (ENE) 19:00:56 437.475
CUTE-I 29 Jul 18:59:05 19:04:14 47° 261° (W) 19:09:26 437.470
NOAA 15 29 Jul 19:11:16 19:15:41 27° 265° (W) 19:20:06 137.62
YUBILEINY 29 Jul 19:11:43 19:17:28 18° 62° (ENE) 19:23:10 435.215
STRAND 1 29 Jul 19:12:49 19:16:17 18° 92° (E) 19:19:45 437.568
SEEDS 29 Jul 19:29:35 19:32:47 21° 68° (ENE) 19:36:00 437.485
BRITE-PL 29 Jul 19:32:13 19:32:43 10° 271° (W) 19:33:13 437.365/2234.400
COMPASS 1 29 Jul 19:36:37 19:39:27 18° 66° (ENE) 19:42:17 437.405
PHONESAT 2.4 29 Jul 19:37:14 19:40:18 67° 192° (SSW) 19:43:23 2401.200-2431.200
O/OREOS (USA 219) 29 Jul 19:38:19 19:41:54 24° 102° (ESE) 19:45:32 437.305
CINEMA 3 29 Jul 19:45:57 19:50:25 59° 73° (ENE) 19:55:08 145.822/145.860
LilacSat-2 29 Jul 19:45:57 19:46:55 11° 270° (W) 19:47:52 437.200
PCSat 29 Jul 19:53:06 19:58:16 45° 305° (NW) 20:03:30 145.827
CUBESAT XI-V 29 Jul 19:54:54 19:56:27 12° 299° (WNW) 19:58:00 437.345
DOVE 4 29 Jul 19:55:23 19:59:12 31° 265° (W) 20:03:14 437.250
NOAA 18 29 Jul 20:01:15 20:04:06 14° 270° (W) 20:06:57 137.9125
AAUSAT CUBESAT 2 29 Jul 20:01:25 20:04:53 26° 69° (ENE) 20:08:20 437.432
FUNcube-1 29 Jul 20:01:42 20:03:09 11° 61° (ENE) 20:04:35 145.935
ZACube-1 29 Jul 20:03:33 20:05:35 13° 62° (ENE) 20:07:38 437.345
BEESAT 3 29 Jul 20:04:01 20:04:33 10° 321° (NW) 20:05:05 437.485
HO-68 29 Jul 20:07:27 20:14:39 89° 259° (WSW) 20:21:55 435.675
UWE-3 29 Jul 20:07:37 20:11:06 22° 66° (ENE) 20:14:37 435.000/436.395/437.385
BEESAT 2 29 Jul 20:14:01 20:16:02 13° 318° (NW) 20:18:04 435.950
CANX-2 29 Jul 20:17:04 20:21:19 68° 259° (W) 20:25:35 2200.000
ISS 29 Jul 20:27:55 20:31:06 54° 139° (SE) 20:34:18 145.825
CUTE 1.7 + AOD 2 29 Jul 20:30:01 20:34:12 55° 260° (W) 20:38:24 437.475
CUBEBUG 2 29 Jul 20:34:21 20:38:53 58° 74° (ENE) 20:43:32 437.445
Cosmos 2491 29 Jul 20:35:15 20:42:26 30° 83° (E) 20:49:37 435.465 / 435.565
Oscar 11 29 Jul 20:37:47 20:41:29 28° 69° (ENE) 20:45:10 145.826/435.025
STRAND 1 29 Jul 20:50:48 20:55:45 52° 289° (WNW) 21:00:40 437.568
AIST 2 29 Jul 20:57:41 21:01:47 72° 304° (NW) 21:05:55 435.215
SEEDS 29 Jul 21:04:31 21:08:18 31° 263° (W) 21:12:05 437.485
Cosmos 2504 29 Jul 21:04:55 21:11:48 30° 69° (ENE) 21:18:14 435.465 / 435.565
YUBILEINY 29 Jul 21:06:43 21:15:37 87° 83° (E) 21:24:26 435.215
M-CUBED/EXP-1 PRIME 29 Jul 21:10:33 21:13:49 26° 62° (ENE) 21:17:19 437.505
COMPASS 1 29 Jul 21:10:49 21:14:43 38° 262° (W) 21:18:38 437.405
PHONESAT 2.4 29 Jul 21:14:07 21:16:31 21° 207° (SSW) 21:18:54 2401.200-2431.200
O/OREOS (USA 219) 29 Jul 21:17:11 21:21:09 31° 300° (WNW) 21:25:09 437.305
CINEMA 3 29 Jul 21:25:42 21:28:00 14° 271° (W) 21:30:21 145.822/145.860
AO-85 29 Jul 21:27:27 21:31:08 25° 46° (NE) 21:34:35 145.980
